This is the latest recevied weather packets stored in our database for station/object DL6MAA-11. If no packets are shown the sender has not sent any weather packets the latest 10 day(s).
| Time | Temp. | Humidity | Pressure | Rain* | Wind** | Luminosity | Snow |
|---|---|---|---|---|---|---|---|
| 1777121563 | 21.11° C | 33% | 1013.5 hPa | 0 mm | - | 520 W/m² | - |
| 1777121262 | 21.11° C | 35% | 1013.5 hPa | 0 mm | - | 519 W/m² | - |
| 1777120962 | 21.11° C | 36% | 1013.5 hPa | 0 mm | - | 522 W/m² | - |
| 1777120667 | 20.56° C | 34% | 1013.5 hPa | 0 mm | - | 526 W/m² | - |
| 1777120355 | 21.11° C | 33% | 1013.5 hPa | 0 mm | - | 531 W/m² | - |
| 1777120066 | 20.56° C | 33% | 1013.9 hPa | 0 mm | - | 540 W/m² | - |
| 1777119765 | 20.56° C | 34% | 1013.9 hPa | 0 mm | - | 534 W/m² | - |
| 1777119446 | 20.56° C | 34% | 1013.9 hPa | 0 mm | - | 540 W/m² | - |
| 1777119146 | 20.56° C | 34% | 1013.9 hPa | 0 mm | - | 545 W/m² | - |
| 1777118851 | 20.56° C | 36% | 1013.9 hPa | 0 mm | - | 541 W/m² | - |
| 1777118556 | 20.56° C | 34% | 1013.9 hPa | 0 mm | - | 545 W/m² | - |
| 1777118257 | 20.56° C | 34% | 1013.9 hPa | 0 mm | - | 550 W/m² | - |
| 1777117961 | 20.56° C | 35% | 1013.9 hPa | 0 mm | - | 554 W/m² | - |
| 1777117659 | 20.56° C | 35% | 1013.9 hPa | 0 mm | - | 548 W/m² | - |
| 1777117363 | 20° C | 35% | 1014.1 hPa | 0 mm | - | 552 W/m² | - |
| 1777117047 | 20.56° C | 36% | 1014.1 hPa | 0 mm | - | 550 W/m² | - |
| 1777116754 | 20° C | 36% | 1014.1 hPa | 0 mm | - | 550 W/m² | - |
| 1777116458 | 20° C | 37% | 1014.5 hPa | 0 mm | - | 559 W/m² | - |
| 1777116165 | 19.44° C | 35% | 1014.5 hPa | 0 mm | - | 554 W/m² | - |
| 1777115846 | 19.44° C | 39% | 1014.5 hPa | 0 mm | - | 555 W/m² | - |
| 1777115548 | 19.44° C | 35% | 1014.4 hPa | 0 mm | - | 550 W/m² | - |
| 1777115254 | 19.44° C | 34% | 1014.4 hPa | 0 mm | - | 552 W/m² | - |
| 1777114960 | 19.44° C | 39% | 1014.4 hPa | 0 mm | - | 552 W/m² | - |
| 1777114666 | 19.44° C | 34% | 1014.4 hPa | 0 mm | - | 554 W/m² | - |
| 1777114350 | 19.44° C | 35% | 1014.4 hPa | 0 mm | - | 557 W/m² | - |
* Rain since midnight (hover to see other rain measurements)
** Current wind speed in m/s (hover to see current wind gust speed)